Starlink 5858

operational
NORAD ID: 57264 Int'l Des: 2023-094 Owner: SPXS Country: US Constellation: starlink
LEOCIRCULAR

Starlink 5858について

説明を読み込み中...

リアルタイム位置

3D地球を読み込み中...

次回通過

高度履歴

Altitude vs Time

uPlot chart will show altitude changes over time

軌道要素

1 57264U 23094AY 26063.37713238 .00001150 00000-0 10019-3 0 9994
2 57264 43.0049 45.9429 0001359 272.5067 87.5619 15.02535460146475
Epoch: Mar 4, 2026 • Age: 21 hours

現在のステータス

高度 559.5 km
速度 7.58 km/s
衛星直下点 -4.28°S, 109.5°E
打ち上げ日 Jul 7, 2023
運用期間 2.6 years
タイプ internet

技術仕様

分類 Payload
質量 305.00 kg
乾燥質量 290.00 kg
総質量 305.00 kg
長さ 0.20 m
直径 2.80 m
スパン 9.00 m
形状 Box + pan
製造者 SPXS
バスタイプ Starlink
フェーズステータス In Orbit
所有者/国 SPXS/US

大規模コンステレーション

Loading constellations...